Vorticity
19 18 19 19 17 14 12 11 10 10 10 10 9 9 10 12 13 14 16 17 18 18 18 18 16 14 12 11 12 11 10 9 9 10 10 11 11 7 5 5 6 6 5 5 5 5 4 5 5 5 6 8 12 14 10 5 5 6 6 6 5 6 6 5 7 8 8 5 7 8 2 5 7 5 7 7 7 9 13 18 20 16 8 6 7 9 12 16
20 17 17 18 19 18 15 13 11 10 9 9 8 7 7 8 9 10 12 12 14 15 16 18 18 17 16 13 13 13 12 11 9 10 10 10 10 10 8 5 6 7 5 5 5 5 4 4 4 4 4 5 8 12 14 10 5 4 5 4 4 5 5 5 6 8 11 10 9 9 4 4 6 5 5 6 6 7 10 12 15 18 16 10 7 6 9 10
18 17 15 14 15 16 16 15 13 12 11 9 8 8 7 7 7 7 8 10 10 11 12 14 15 17 17 16 15 14 14 13 12 11 10 10 11 10 10 8 6 7 6 5 5 5 5 4 4 5 4 3 4 7 12 14 10 6 4 4 4 4 4 6 6 7 13 14 10 10 7 5 5 4 4 5 4 4 8 8 8 14 17 17 14 8 6 9
15 16 14 12 12 12 13 14 14 13 13 12 11 10 9 8 8 8 8 8 9 10 11 11 11 12 14 15 16 16 15 15 14 13 11 11 12 10 9 9 8 8 6 5 6 5 5 5 5 5 5 4 3 4 7 11 13 11 7 6 6 6 5 5 6 7 11 13 10 10 10 7 5 4 3 4 4 4 5 5 5 8 11 16 19 16 9 6
11 12 12 11 10 10 10 11 12 13 13 13 13 12 12 11 10 10 10 10 9 10 10 10 10 10 11 11 13 15 16 16 15 15 14 12 12 12 11 10 9 10 8 5 6 6 5 5 4 4 4 5 5 3 3 6 11 12 10 9 8 7 7 6 7 8 8 11 10 10 12 10 7 5 3 3 3 3 2 3 5 5 6 8 13 20 19 10
10 8 9 9 8 8 8 9 9 10 11 11 12 12 12 12 12 12 12 12 12 12 11 11 10 10 10 10 10 11 13 15 15 14 15 15 14 13 12 11 11 10 10 8 6 6 6 5 5 5 5 5 5 5 4 3 6 9 10 11 10 8 9 8 8 8 8 10 9 10 11 10 10 9 4 2 3 2 2 4 4 4 4 4 7 14 21 18
9 7 6 6 6 7 7 8 9 9 10 10 11 12 13 14 14 14 14 14 14 14 14 13 13 12 11 11 11 10 10 12 13 13 14 15 14 14 13 12 12 12 10 9 8 8 6 5 6 5 5 5 5 6 6 4 3 5 7 9 10 9 10 10 9 9 8 9 8 8 10 9 11 10 7 5 3 2 3 3 3 4 4 4 5 9 16 21
9 7 6 5 5 6 7 7 7 7 8 9 10 11 13 14 15 16 17 17 17 17 17 16 14 13 13 13 12 11 11 11 10 11 12 13 13 13 14 13 12 14 12 9 9 9 8 6 6 6 6 6 5 5 6 6 4 3 4 5 8 8 9 11 11 10 8 7 7 7 9 10 8 9 11 10 4 2 4 3 3 4 4 4 4 6 11 15
9 8 8 7 6 7 7 7 7 7 8 9 10 11 11 11 12 13 14 15 15 16 17 19 18 16 14 13 14 13 13 13 10 8 9 11 12 12 13 13 13 14 14 11 9 9 10 8 7 6 6 5 5 5 5 6 6 4 3 3 5 7 8 10 11 11 9 7 7 7 9 9 6 8 13 12 6 4 5 4 3 3 3 4 4 5 9 11
9 9 9 8 8 8 8 8 9 11 12 12 11 11 10 10 9 9 9 10 11 12 13 16 19 19 17 15 15 14 11 12 12 9 8 8 10 12 12 13 13 14 15 13 10 9 9 9 8 6 6 7 6 5 5 5 6 6 4 3 2 4 8 10 10 11 9 7 7 6 8 8 6 9 13 11 7 5 5 5 5 4 3 3 5 5 7 10
10 9 10 9 10 10 10 10 11 13 12 11 10 9 9 9 9 10 10 11 12 12 12 12 14 17 19 18 17 17 13 13 15 12 11 10 9 10 11 12 12 12 14 15 13 10 9 9 10 10 9 8 7 6 6 6 6 6 6 5 3 3 5 7 10 11 9 8 6 6 7 7 4 8 14 11 8 7 5 5 6 6 5 3 4 5 5 8
10 11 10 10 11 11 13 13 13 12 9 9 8 8 10 10 11 14 17 21 23 22 21 20 18 16 17 17 17 20 18 14 16 14 12 12 10 9 10 11 13 12 12 14 14 13 11 9 9 10 9 7 7 7 6 5 5 5 6 6 5 4 3 4 9 10 10 9 7 6 5 5 3 7 14 12 9 7 5 6 6 7 6 4 4 4 5 6
12 11 11 11 12 14 14 14 12 10 10 10 10 11 12 16 20 23 27 32 35 37 35 32 30 26 20 18 18 20 19 15 17 16 11 11 11 10 9 8 10 12 12 12 13 13 12 12 9 8 8 9 8 6 7 7 6 5 5 6 6 5 4 4 7 9 11 9 8 7 4 6 5 6 12 11 9 6 5 7 6 7 7 5 4 4 5 6
12 12 12 12 14 15 13 10 10 11 13 13 16 18 20 26 31 36 37 36 39 44 46 42 38 38 31 22 21 23 20 17 18 18 13 11 12 12 10 8 8 10 13 12 11 12 13 13 12 9 7 9 9 8 9 8 7 7 6 6 6 6 5 5 6 7 10 9 11 8 5 8 4 3 10 9 8 6 4 7 6 8 9 7 5 5 6 6
13 12 12 13 14 12 10 11 13 14 15 18 21 23 28 33 35 38 34 27 28 34 45 49 42 42 40 29 26 28 23 19 21 23 17 12 12 12 11 10 8 8 11 12 11 11 12 14 13 12 8 8 9 9 9 8 7 7 6 6 6 6 5 5 5 5 9 10 11 8 5 8 2 3 13 9 8 7 3 6 7 8 9 8 7 4 5 6
13 12 12 12 11 10 12 14 15 15 18 20 21 21 26 28 25 26 23 15 12 17 33 46 46 45 40 31 30 32 29 23 23 25 23 16 12 12 12 11 10 8 9 10 12 11 11 13 13 13 10 7 6 8 9 8 7 7 6 6 6 7 6 5 6 4 8 10 9 8 5 7 3 5 14 9 7 8 4 5 8 9 9 8 8 6 5 5
13 12 12 10 9 12 15 15 15 18 19 17 16 16 17 15 13 15 14 8 3 13 25 28 40 49 40 33 30 31 34 29 25 27 27 21 14 13 13 13 11 9 9 9 10 11 11 11 12 13 12 10 7 6 7 7 8 7 7 7 5 7 6 5 7 5 7 8 9 9 6 7 5 5 12 8 6 8 5 5 7 9 10 8 8 7 5 4
12 11 10 8 10 15 16 14 18 20 15 13 13 11 10 9 11 13 11 7 1 9 17 11 22 37 37 37 29 27 33 29 26 31 32 26 17 14 12 13 13 10 11 10 9 10 11 11 11 12 11 11 8 5 5 6 8 8 6 7 5 6 7 6 7 6 7 8 10 9 6 8 7 6 9 6 6 10 6 5 7 8 9 9 8 7 6 5
11 10 9 9 13 16 13 14 20 18 9 12 14 8 9 11 16 20 15 14 3 -1 9 7 13 23 23 26 26 31 39 34 29 27 33 33 21 15 13 11 12 10 11 10 9 8 9 11 10 9 9 10 11 8 7 7 7 8 6 6 5 6 7 7 8 7 7 8 9 9 7 8 9 7 8 5 4 9 8 6 6 8 9 10 9 7 7 5
10 9 9 11 15 14 11 15 20 16 6 9 13 8 10 13 18 22 21 22 8 1 11 4 5 16 12 10 15 23 32 39 39 28 31 37 25 17 15 13 12 10 11 10 9 10 9 10 8 9 12 12 13 11 10 7 5 7 8 7 5 5 7 8 10 9 7 8 8 9 7 8 10 8 8 6 4 7 8 7 7 7 9 12 11 8 8 6
9 8 10 14 15 11 9 13 16 15 7 6 11 7 6 10 15 17 19 22 9 9 25 12 4 12 8 8 8 6 13 30 45 37 32 35 27 20 17 15 14 11 12 11 10 10 6 6 8 11 13 13 13 12 10 9 7 7 8 9 7 5 6 7 10 10 7 7 8 8 7 9 11 9 7 6 4 6 6 6 8 6 6 9 12 11 8 6
9 8 12 16 14 9 8 11 13 16 13 9 11 8 5 8 11 14 18 20 9 10 23 18 13 14 10 11 6 2 6 25 54 46 30 34 25 20 21 16 17 14 12 12 9 9 6 5 10 11 11 11 12 12 11 9 8 7 7 10 9 6 6 6 9 10 7 6 7 7 6 9 12 9 8 5 3 5 6 6 8 7 5 6 10 12 8 7
8 7 14 17 13 8 6 9 13 19 21 14 11 7 3 6 9 13 18 18 14 12 12 11 17 18 14 13 8 8 3 17 63 54 25 35 26 15 25 21 19 17 13 14 10 7 9 9 11 11 9 11 11 11 11 9 8 8 7 9 9 7 7 6 8 10 9 7 6 6 5 8 12 10 8 7 4 5 5 6 7 8 8 6 7 10 9 7
7 8 13 16 13 8 5 7 10 17 20 13 8 3 2 10 13 15 18 17 14 12 10 8 13 14 11 10 10 21 8 3 50 57 24 32 30 17 24 22 22 22 15 16 12 8 10 10 10 11 8 8 11 12 11 10 8 8 8 8 9 8 7 7 7 9 10 8 5 5 6 7 10 11 8 7 5 5 5 5 6 7 8 8 7 8 9 9
7 7 11 15 14 8 5 7 7 12 14 6 3 3 5 13 15 16 21 19 9 9 13 10 13 15 9 10 10 21 22 3 26 49 31 26 29 26 24 21 25 26 19 17 15 11 9 8 8 8 9 8 10 12 11 10 8 8 9 8 8 8 7 8 8 8 9 9 7 6 6 6 9 11 8 7 6 5 5 5 6 7 7 8 9 9 10 10
7 6 10 14 13 10 5 5 6 11 12 6 7 9 9 12 12 15 23 22 7 4 14 13 16 18 12 16 12 13 28 18 12 31 36 24 22 27 26 23 27 27 20 16 16 14 8 9 10 6 8 10 10 12 11 12 9 7 9 8 8 8 7 9 9 9 10 9 8 6 6 5 8 10 8 7 6 5 6 5 5 6 7 8 8 9 11 9
6 6 10 12 12 11 7 5 6 10 11 10 13 13 10 9 12 17 21 23 14 7 17 18 13 18 20 19 11 8 24 27 15 19 32 28 17 21 26 24 29 30 22 16 16 15 8 10 10 6 9 9 10 12 10 12 10 7 9 7 8 9 7 11 10 8 9 9 7 6 6 5 6 10 8 7 7 5 5 5 5 5 7 8 8 9 11 10
6 6 9 11 11 10 8 7 6 8 10 10 14 13 10 9 11 19 22 22 15 8 19 21 8 11 21 21 15 15 18 23 27 23 25 33 23 18 25 25 27 32 29 21 17 13 8 12 12 6 9 9 9 11 9 11 10 8 9 6 8 10 7 10 12 10 8 7 7 6 6 5 4 8 9 7 7 6 5 4 5 5 6 8 9 10 12 11
5 6 8 10 11 10 9 9 6 7 9 10 12 10 11 11 8 15 24 24 11 3 15 19 10 6 9 18 22 19 14 18 32 28 17 28 32 21 20 23 26 32 33 23 17 15 8 13 16 7 9 11 8 10 10 11 9 9 10 5 6 10 8 9 10 12 10 6 7 7 7 5 4 8 10 7 7 7 5 4 4 4 5 7 9 12 13 13
4 6 9 9 11 11 12 10 7 7 7 8 10 9 12 13 6 9 18 22 15 10 15 11 9 11 7 18 27 20 17 19 24 23 13 18 33 27 14 17 26 35 40 25 12 18 13 10 16 9 8 11 10 10 10 9 10 11 10 6 7 9 9 11 9 9 10 8 7 7 6 5 4 7 9 7 7 7 6 5 4 4 5 6 9 13 13 13
3 6 9 10 11 12 15 14 11 12 8 8 8 8 12 11 9 10 9 16 18 17 23 13 6 16 16 16 19 14 18 24 22 23 20 18 29 31 14 13 22 27 40 37 16 16 14 9 16 13 6 10 11 12 10 8 11 12 9 7 8 8 9 11 10 8 9 9 8 7 7 7 4 5 9 8 7 8 6 6 6 4 5 6 9 12 12 10
3 6 8 10 11 10 12 12 13 16 13 11 9 7 11 11 11 10 4 12 14 10 21 20 8 14 19 15 12 8 9 25 34 28 24 25 27 29 18 18 26 17 20 34 30 21 10 7 17 13 6 9 11 11 9 9 13 11 8 9 8 8 8 9 9 8 8 7 7 7 7 7 5 4 7 8 6 8 8 6 6 4 5 8 9 10 10 8
2 5 8 10 9 5 6 7 10 15 15 15 13 9 10 13 13 8 5 13 14 8 14 20 15 10 14 16 16 12 4 19 40 28 18 27 26 23 17 16 29 25 16 24 30 25 10 7 16 13 9 10 9 11 10 9 13 9 8 11 9 8 7 7 8 7 7 7 6 6 6 6 7 5 6 10 10 9 8 6 6 5 4 6 7 7 7 5
2 4 8 10 7 2 3 6 7 10 14 16 17 13 10 12 14 10 10 14 17 18 12 12 17 10 9 17 17 17 7 14 39 30 18 27 26 24 19 12 20 23 20 27 30 22 13 13 14 11 12 10 6 9 12 11 11 9 11 12 11 12 9 8 11 9 6 9 8 5 6 6 6 5 6 12 14 9 9 8 7 6 4 4 5 5 6 4
2 4 8 10 6 1 2 4 5 6 10 15 18 18 12 9 13 11 10 11 15 23 18 11 10 5 10 15 12 16 11 11 30 31 24 27 24 27 25 17 18 14 13 30 35 21 13 17 17 11 10 9 7 8 10 12 12 10 10 10 12 13 10 7 11 11 5 5 9 7 6 7 4 5 7 10 14 10 8 9 7 7 5 3 5 4 5 4
3 3 7 10 5 1 2 1 4 6 8 13 17 18 14 8 10 10 8 8 10 15 21 19 7 2 16 15 7 16 15 12 25 26 22 19 17 26 25 16 20 16 8 22 37 25 11 15 17 13 13 10 8 10 11 10 12 15 13 11 11 10 14 16 10 11 10 4 6 8 6 7 3 4 7 7 11 11 9 10 8 9 8 4 5 4 3 3
3 3 7 10 5 1 1 -0 3 7 9 14 15 15 15 11 9 12 9 7 9 8 12 20 8 3 19 16 6 15 16 17 27 24 21 22 21 19 15 16 22 18 7 15 37 32 15 20 20 10 14 12 6 14 18 7 8 18 16 14 13 2 10 24 11 8 15 7 6 8 6 7 3 4 9 8 10 12 10 10 8 9 10 8 8 6 4 4
3 4 6 9 7 2 0 -1 2 8 11 15 16 13 14 12 7 12 12 5 6 6 7 13 12 12 22 15 5 12 17 19 23 22 19 23 26 17 13 23 20 12 7 8 31 36 14 19 25 9 12 15 8 15 21 11 7 13 12 14 17 -0 -1 17 10 5 13 9 9 10 6 8 5 3 8 8 11 14 12 12 11 10 11 11 12 10 7 6
5 3 5 7 8 5 2 -0 1 8 11 11 14 13 12 14 7 5 12 7 1 5 9 11 13 19 23 16 9 14 23 24 20 20 16 15 25 22 16 23 17 15 13 -1 19 40 17 12 22 11 10 16 16 17 19 16 9 5 9 16 18 8 5 14 9 3 7 8 11 12 8 9 6 4 9 10 10 13 14 14 12 12 13 11 13 14 11 10
10 2 3 6 8 7 5 2 0 6 11 8 9 11 11 16 14 6 7 6 1 6 14 13 9 14 21 17 9 11 24 31 23 19 17 17 29 25 9 14 20 25 20 -3 6 33 26 20 23 13 8 14 19 20 16 15 10 2 7 13 12 10 12 16 12 6 6 7 10 11 7 9 9 6 11 15 11 10 13 15 12 12 15 15 13 14 14 13
14 2 3 5 7 9 7 4 1 3 9 8 6 9 10 12 19 21 14 5 3 7 13 15 9 9 19 19 9 4 13 26 23 17 17 14 20 20 8 10 20 26 27 9 1 15 19 24 29 20 10 11 17 20 17 18 19 13 11 14 13 13 11 10 10 7 3 5 13 11 4 13 21 12 10 15 12 10 14 16 15 13 14 15 13 12 14 14
17 6 4 4 6 10 8 6 5 2 6 10 6 9 14 9 11 24 23 10 9 11 9 13 12 9 14 19 16 9 10 19 19 15 19 15 11 16 13 12 15 20 27 18 7 13 14 15 31 33 20 12 13 19 20 18 20 19 15 12 11 15 13 7 12 15 1 -0 12 6 -5 12 28 19 13 13 8 9 15 14 16 16 13 13 11 10 13 14
21 11 4 2 5 9 8 8 9 4 5 10 8 9 16 11 6 15 21 15 15 15 10 13 17 15 15 18 17 9 3 9 14 15 20 18 14 19 17 13 17 16 17 16 15 21 15 9 23 29 20 16 16 19 20 17 17 17 17 14 9 12 9 -2 14 31 9 -2 14 7 -9 7 31 27 14 10 8 9 14 14 14 16 13 11 12 12 14 14
22 15 6 4 5 7 7 6 5 3 4 9 10 10 13 11 6 11 17 15 15 14 11 15 19 16 17 20 19 16 6 1 7 17 22 18 16 24 18 12 18 15 8 14 22 24 15 10 15 15 11 14 15 16 15 13 16 14 14 15 9 14 10 -13 2 34 21 7 17 14 7 13 24 29 16 5 10 12 13 14 12 12 13 12 13 14 13 13
23 17 8 6 5 5 8 6 2 1 4 9 11 11 13 10 6 11 13 10 12 13 10 14 17 13 13 14 13 16 15 9 6 9 18 21 18 21 21 16 20 17 6 7 16 19 11 7 14 17 13 9 8 13 15 14 16 12 12 12 4 12 19 -9 -13 10 17 18 8 -3 22 35 18 19 20 6 9 14 12 14 11 10 12 10 10 12 11 10
26 21 10 8 6 5 7 7 6 3 2 7 10 10 15 12 6 11 14 8 9 13 11 10 12 11 9 7 5 3 4 12 14 6 11 21 17 16 20 18 18 17 12 11 14 16 9 3 15 25 21 16 14 18 21 18 16 12 11 13 7 11 18 3 -6 -6 4 34 18 -24 5 43 21 10 18 8 8 15 13 12 12 10 10 8 7 9 8 8
26 24 13 8 5 6 8 8 8 7 3 6 9 10 14 15 11 11 13 11 7 11 14 11 9 11 7 4 7 3 -4 5 12 10 15 19 13 14 16 14 19 17 15 20 16 10 7 6 15 21 15 16 20 20 22 21 17 14 9 10 10 11 12 6 4 -8 -15 24 43 1 -6 24 20 11 16 10 8 14 12 12 12 10 9 8 7 8 8 7
22 24 17 10 5 5 9 9 9 7 5 5 9 12 11 11 17 17 13 12 8 9 15 13 9 12 10 6 7 7 10 17 12 10 22 21 11 16 14 12 21 15 10 21 15 3 8 12 14 15 11 16 19 17 22 25 22 18 11 7 8 11 12 7 5 0 -19 -10 25 27 12 15 17 15 15 11 10 13 12 11 10 9 9 8 8 9 7 5
19 21 17 12 9 7 7 10 10 6 5 3 5 12 7 -2 9 20 17 14 10 10 16 14 5 5 14 20 20 15 22 31 21 14 27 24 9 15 18 11 15 14 11 19 13 4 10 13 12 15 16 20 21 15 18 23 22 20 13 9 12 11 12 9 4 8 -0 -17 -7 14 19 17 16 15 15 11 11 13 12 10 9 9 9 8 6 7 7 8
20 23 19 11 11 9 6 9 12 8 7 6 4 11 10 -0 -0 9 16 18 13 11 16 15 3 -2 9 21 21 15 19 29 30 26 26 20 8 14 19 11 12 18 14 14 13 8 10 14 14 16 16 18 20 18 18 17 17 19 14 10 15 14 12 13 8 7 10 5 -0 7 16 17 15 14 16 13 10 12 13 11 11 9 7 5 5 7 10 11
17 23 22 14 10 10 7 9 12 10 8 7 6 8 11 10 5 3 11 20 16 12 14 17 9 -2 3 14 14 15 21 28 33 30 22 16 12 13 15 12 15 15 6 12 19 10 9 17 15 12 12 16 20 20 19 16 13 16 16 11 12 13 11 13 11 7 9 10 7 7 11 14 14 14 14 12 10 11 12 10 10 9 5 3 5 8 8 8
15 18 20 16 11 9 9 9 11 13 10 6 7 8 9 13 12 7 12 18 17 15 13 15 16 6 6 18 21 22 26 26 27 29 24 20 20 17 10 8 12 5 -2 11 18 8 11 17 10 8 14 16 21 21 15 13 12 14 18 16 11 12 12 11 12 14 13 10 6 2 -2 -1 7 12 13 12 10 9 10 9 7 7 5 2 5 8 7 5
Height
5729 5726 5723 5721 5719 5717 5715 5714 5712 5710 5709 5708 5707 5706 5704 5703 5702 5701 5700 5699 5698 5698 5699 5699 5700 5701 5702 5704 5705 5706 5708 5710 5712 5715 5717 5721 5724 5727 5731 5734 5738 5740 5742 5746 5749 5753 5755 5758 5761 5764 5766 5769 5771 5773 5777 5780 5783 5784 5786 5788 5789 5792 5796 5798 5801 5805 5808 5813 5817 5818 5818 5818 5818 5819 5820 5822 5824 5826 5828 5829 5830 5830 5830 5831 5834 5837 5840 5843
5725 5722 5719 5717 5715 5713 5711 5709 5707 5706 5704 5702 5701 5700 5699 5698 5697 5696 5694 5694 5693 5692 5692 5692 5692 5693 5694 5696 5696 5698 5700 5702 5704 5707 5710 5713 5716 5719 5723 5727 5730 5733 5736 5739 5742 5746 5749 5752 5755 5758 5760 5763 5766 5768 5771 5774 5776 5779 5782 5783 5785 5790 5792 5794 5797 5800 5806 5811 5813 5812 5814 5815 5814 5816 5818 5819 5821 5823 5825 5825 5826 5827 5827 5828 5830 5834 5837 5839
5721 5718 5716 5713 5711 5709 5707 5705 5703 5701 5699 5698 5696 5694 5693 5691 5690 5689 5688 5688 5687 5686 5686 5686 5686 5686 5687 5688 5688 5690 5692 5694 5696 5699 5702 5705 5708 5712 5715 5719 5723 5726 5729 5732 5735 5739 5743 5746 5749 5752 5755 5757 5760 5763 5765 5768 5771 5774 5776 5778 5782 5786 5787 5788 5793 5798 5804 5808 5807 5807 5811 5812 5811 5813 5815 5816 5817 5820 5822 5822 5823 5824 5824 5825 5827 5831 5833 5836
5717 5715 5712 5710 5707 5704 5702 5700 5698 5696 5694 5692 5690 5689 5687 5685 5683 5682 5681 5680 5680 5680 5679 5679 5679 5679 5679 5680 5681 5682 5684 5685 5686 5690 5694 5697 5700 5704 5706 5710 5715 5718 5721 5725 5729 5732 5735 5740 5743 5747 5749 5752 5755 5758 5760 5762 5766 5769 5771 5774 5779 5781 5781 5783 5791 5796 5800 5803 5800 5802 5807 5808 5808 5810 5811 5811 5814 5817 5818 5818 5820 5822 5823 5823 5824 5827 5830 5833
5713 5710 5708 5705 5702 5700 5697 5695 5692 5690 5688 5686 5684 5682 5680 5678 5676 5674 5673 5672 5672 5671 5671 5671 5671 5671 5672 5672 5673 5675 5676 5676 5678 5682 5685 5688 5692 5695 5698 5702 5707 5710 5714 5718 5722 5725 5728 5733 5737 5740 5743 5746 5749 5752 5755 5758 5762 5764 5767 5771 5774 5775 5776 5781 5789 5793 5794 5797 5796 5798 5803 5804 5804 5805 5806 5808 5810 5813 5813 5815 5818 5820 5821 5821 5822 5824 5826 5829
5708 5705 5702 5699 5697 5694 5691 5688 5686 5683 5681 5678 5676 5674 5672 5670 5668 5667 5665 5664 5663 5662 5662 5662 5662 5664 5664 5664 5666 5668 5668 5668 5669 5673 5676 5679 5683 5686 5690 5694 5698 5702 5706 5710 5715 5718 5722 5726 5730 5733 5737 5740 5744 5748 5751 5754 5758 5760 5763 5767 5768 5769 5773 5779 5784 5787 5789 5792 5792 5794 5797 5799 5800 5801 5802 5804 5806 5808 5810 5813 5815 5816 5818 5819 5820 5821 5823 5826
5703 5699 5696 5692 5690 5686 5683 5680 5678 5675 5672 5669 5667 5665 5663 5661 5659 5658 5656 5656 5655 5653 5653 5652 5653 5655 5655 5656 5658 5659 5661 5661 5659 5664 5668 5670 5674 5677 5682 5686 5690 5694 5698 5702 5707 5712 5715 5719 5723 5728 5731 5735 5739 5743 5746 5749 5752 5756 5758 5762 5763 5764 5769 5774 5778 5781 5785 5786 5788 5790 5792 5795 5796 5797 5798 5801 5803 5804 5807 5810 5812 5814 5815 5817 5817 5818 5820 5823
5699 5695 5690 5686 5682 5678 5675 5672 5669 5666 5663 5660 5658 5655 5653 5650 5649 5647 5646 5645 5644 5644 5643 5642 5643 5644 5646 5647 5648 5652 5654 5651 5649 5655 5660 5661 5664 5669 5673 5678 5683 5687 5690 5694 5700 5705 5708 5712 5717 5722 5725 5729 5733 5737 5740 5743 5747 5751 5754 5756 5757 5760 5765 5770 5773 5777 5780 5781 5783 5785 5787 5790 5792 5793 5795 5798 5800 5800 5803 5805 5809 5811 5813 5814 5815 5816 5818 5820
5695 5691 5686 5682 5678 5674 5670 5667 5663 5660 5656 5653 5650 5647 5644 5641 5639 5637 5635 5634 5632 5633 5632 5632 5633 5633 5636 5637 5638 5644 5643 5639 5641 5647 5650 5653 5656 5660 5665 5669 5675 5680 5683 5687 5692 5698 5702 5706 5710 5714 5718 5722 5726 5730 5734 5738 5742 5745 5748 5749 5752 5756 5762 5766 5768 5771 5775 5776 5779 5780 5783 5786 5787 5788 5792 5795 5796 5796 5798 5802 5805 5808 5810 5812 5813 5814 5816 5817
5691 5687 5683 5679 5675 5671 5667 5663 5659 5655 5652 5648 5644 5640 5636 5633 5630 5627 5625 5623 5621 5621 5620 5621 5621 5623 5625 5626 5630 5631 5629 5630 5634 5637 5640 5645 5649 5652 5657 5662 5667 5672 5676 5680 5684 5690 5695 5698 5702 5706 5712 5716 5720 5725 5728 5733 5736 5737 5741 5744 5748 5753 5757 5760 5763 5766 5769 5771 5774 5776 5778 5782 5783 5785 5788 5791 5791 5793 5795 5798 5802 5805 5807 5809 5810 5812 5813 5815
5687 5683 5679 5675 5671 5667 5663 5659 5654 5650 5646 5641 5637 5633 5628 5624 5621 5617 5614 5611 5610 5609 5609 5609 5609 5611 5612 5616 5620 5617 5618 5624 5624 5627 5632 5638 5642 5645 5650 5654 5659 5664 5669 5672 5676 5682 5687 5691 5696 5701 5707 5710 5714 5719 5723 5728 5730 5731 5737 5741 5743 5748 5751 5754 5758 5761 5763 5766 5769 5772 5775 5777 5778 5780 5783 5786 5789 5791 5793 5795 5798 5802 5804 5806 5808 5810 5811 5813
5683 5678 5674 5670 5666 5662 5658 5654 5649 5645 5640 5635 5630 5626 5621 5617 5612 5608 5603 5599 5597 5596 5596 5596 5596 5598 5600 5606 5609 5604 5608 5613 5612 5619 5624 5628 5635 5638 5642 5647 5651 5656 5661 5665 5668 5673 5679 5685 5690 5694 5698 5702 5708 5713 5716 5721 5723 5726 5732 5736 5739 5743 5745 5749 5754 5756 5759 5761 5764 5767 5770 5772 5774 5777 5780 5784 5787 5787 5789 5792 5795 5798 5801 5804 5806 5807 5809 5811
5678 5674 5669 5665 5662 5657 5653 5649 5644 5640 5635 5630 5625 5620 5615 5611 5605 5600 5595 5590 5586 5584 5583 5583 5583 5584 5587 5596 5597 5592 5597 5600 5603 5611 5613 5618 5626 5629 5634 5639 5643 5648 5653 5657 5661 5666 5672 5677 5683 5687 5690 5696 5702 5705 5710 5715 5718 5721 5726 5731 5734 5736 5740 5746 5750 5752 5755 5756 5760 5763 5765 5770 5772 5773 5777 5781 5783 5783 5785 5789 5792 5795 5799 5801 5803 5805 5807 5809
5673 5669 5664 5660 5657 5653 5648 5644 5639 5635 5630 5626 5620 5615 5610 5605 5599 5594 5589 5584 5579 5575 5573 5572 5572 5571 5576 5584 5583 5580 5585 5588 5594 5601 5604 5609 5615 5620 5626 5631 5636 5641 5645 5650 5654 5659 5664 5670 5676 5679 5684 5691 5695 5699 5706 5710 5713 5717 5721 5725 5728 5730 5735 5741 5745 5747 5750 5752 5757 5760 5761 5767 5767 5766 5773 5778 5779 5780 5783 5787 5789 5792 5796 5798 5800 5802 5805 5807
5669 5664 5660 5656 5652 5648 5644 5639 5635 5630 5625 5621 5615 5610 5605 5599 5594 5588 5584 5579 5574 5570 5566 5564 5563 5561 5565 5571 5569 5569 5574 5578 5584 5591 5595 5599 5603 5611 5618 5623 5629 5634 5638 5642 5647 5653 5658 5663 5668 5673 5679 5685 5689 5695 5700 5703 5707 5711 5714 5718 5722 5725 5729 5735 5740 5742 5746 5749 5754 5756 5757 5762 5762 5762 5772 5776 5776 5778 5780 5784 5786 5789 5792 5795 5797 5800 5802 5804
5664 5660 5656 5652 5648 5644 5640 5635 5631 5626 5621 5616 5611 5605 5600 5595 5590 5585 5580 5575 5571 5567 5563 5559 5557 5555 5557 5559 5558 5560 5565 5568 5573 5579 5585 5588 5593 5601 5609 5615 5621 5626 5631 5635 5641 5646 5650 5656 5661 5666 5672 5677 5682 5689 5692 5695 5700 5704 5707 5712 5716 5721 5724 5728 5736 5739 5743 5746 5749 5751 5752 5758 5760 5762 5771 5774 5774 5776 5777 5781 5783 5786 5789 5791 5794 5796 5799 5801
5660 5656 5652 5648 5644 5640 5636 5631 5627 5622 5617 5612 5607 5602 5597 5592 5588 5583 5577 5572 5568 5564 5560 5557 5553 5551 5551 5550 5552 5554 5556 5559 5563 5569 5575 5578 5583 5591 5599 5606 5612 5618 5624 5628 5634 5639 5643 5649 5653 5659 5664 5669 5676 5682 5685 5688 5693 5698 5701 5705 5709 5716 5719 5723 5732 5736 5739 5742 5744 5747 5748 5754 5758 5761 5768 5770 5770 5773 5774 5777 5780 5783 5786 5788 5790 5793 5796 5798
5657 5653 5649 5645 5641 5637 5632 5628 5623 5618 5614 5609 5604 5599 5594 5589 5585 5581 5575 5570 5566 5562 5559 5556 5551 5549 5547 5546 5548 5548 5548 5551 5555 5559 5563 5568 5574 5581 5588 5596 5603 5611 5616 5620 5626 5631 5637 5641 5646 5652 5657 5663 5669 5673 5678 5683 5689 5693 5696 5701 5704 5710 5714 5718 5728 5733 5736 5739 5741 5743 5744 5750 5756 5759 5764 5766 5767 5770 5771 5774 5777 5779 5782 5784 5786 5789 5792 5794
5654 5651 5646 5642 5637 5633 5629 5625 5620 5615 5611 5606 5602 5596 5591 5587 5582 5578 5574 5568 5563 5559 5557 5555 5552 5549 5545 5544 5544 5544 5544 5546 5548 5550 5553 5559 5565 5571 5578 5586 5594 5601 5607 5613 5619 5624 5630 5634 5639 5645 5650 5657 5662 5667 5674 5678 5683 5687 5691 5697 5700 5705 5711 5716 5725 5731 5733 5736 5738 5740 5741 5747 5755 5757 5760 5762 5763 5766 5768 5770 5772 5775 5778 5780 5783 5786 5788 5791
5652 5648 5644 5639 5634 5630 5626 5622 5617 5613 5609 5604 5599 5594 5589 5585 5580 5576 5572 5567 5561 5556 5554 5552 5550 5548 5545 5543 5541 5541 5541 5541 5542 5544 5546 5551 5557 5562 5568 5576 5584 5591 5598 5606 5611 5617 5623 5627 5633 5641 5647 5653 5656 5663 5671 5672 5677 5683 5687 5692 5696 5702 5709 5713 5722 5727 5729 5732 5734 5737 5738 5743 5752 5754 5756 5758 5759 5762 5764 5766 5768 5771 5774 5777 5779 5782 5785 5787
5649 5646 5641 5636 5631 5627 5623 5619 5615 5610 5606 5601 5597 5592 5587 5582 5578 5574 5570 5566 5560 5555 5552 5550 5547 5545 5544 5542 5539 5539 5538 5537 5536 5538 5541 5545 5549 5553 5559 5567 5575 5582 5591 5597 5602 5609 5615 5621 5631 5639 5642 5647 5651 5659 5665 5667 5672 5679 5683 5689 5694 5699 5704 5710 5717 5722 5725 5727 5729 5733 5734 5739 5747 5749 5751 5754 5755 5757 5760 5763 5766 5768 5771 5774 5776 5779 5781 5783
5647 5643 5639 5634 5629 5625 5621 5616 5612 5608 5603 5598 5594 5589 5585 5580 5575 5571 5567 5564 5558 5553 5550 5548 5545 5543 5541 5539 5537 5536 5535 5532 5529 5530 5535 5537 5542 5547 5552 5559 5566 5575 5582 5587 5593 5600 5607 5618 5628 5632 5634 5639 5645 5652 5658 5661 5667 5674 5680 5686 5691 5695 5700 5705 5712 5717 5720 5722 5724 5728 5730 5735 5743 5745 5747 5749 5751 5754 5757 5760 5763 5765 5768 5770 5772 5775 5777 5779
5645 5641 5637 5632 5627 5623 5619 5614 5610 5605 5601 5596 5591 5587 5582 5578 5573 5568 5564 5561 5557 5552 5548 5545 5543 5541 5539 5536 5535 5533 5531 5528 5524 5524 5528 5532 5537 5541 5545 5551 5559 5566 5572 5578 5587 5594 5604 5614 5620 5622 5626 5632 5638 5645 5652 5656 5661 5669 5676 5681 5686 5690 5695 5701 5709 5713 5716 5719 5720 5723 5726 5732 5739 5741 5743 5745 5747 5750 5754 5756 5759 5761 5763 5766 5769 5772 5774 5776
5643 5639 5635 5630 5625 5621 5617 5612 5608 5603 5599 5594 5590 5585 5580 5575 5571 5566 5562 5558 5554 5550 5547 5543 5541 5539 5536 5534 5532 5530 5528 5525 5522 5521 5524 5528 5532 5535 5539 5547 5553 5558 5565 5574 5581 5589 5598 5606 5610 5615 5620 5625 5632 5640 5647 5651 5657 5665 5670 5676 5681 5684 5690 5698 5704 5708 5712 5715 5716 5719 5723 5727 5733 5737 5738 5741 5743 5747 5750 5752 5755 5757 5759 5762 5765 5768 5770 5773
5641 5637 5633 5628 5624 5619 5615 5611 5606 5601 5597 5593 5588 5584 5579 5574 5569 5564 5560 5556 5552 5548 5545 5541 5539 5536 5534 5531 5529 5528 5525 5523 5521 5521 5522 5524 5527 5531 5536 5541 5545 5551 5561 5569 5575 5582 5591 5596 5602 5609 5614 5621 5630 5636 5642 5647 5653 5659 5664 5671 5675 5678 5686 5694 5699 5704 5708 5711 5713 5716 5720 5723 5729 5733 5734 5737 5740 5743 5746 5749 5752 5754 5757 5760 5762 5764 5767 5771
5639 5635 5631 5626 5622 5618 5613 5609 5605 5600 5596 5591 5587 5582 5577 5572 5567 5562 5557 5554 5550 5547 5543 5540 5537 5534 5531 5529 5527 5525 5523 5521 5519 5519 5519 5521 5523 5527 5531 5536 5540 5547 5556 5563 5568 5575 5583 5588 5595 5602 5609 5619 5626 5631 5637 5643 5648 5654 5660 5667 5671 5674 5683 5691 5696 5701 5705 5707 5709 5713 5716 5720 5725 5729 5731 5733 5736 5740 5743 5745 5748 5751 5754 5756 5759 5762 5766 5769
5638 5633 5629 5624 5620 5616 5612 5607 5603 5599 5594 5590 5585 5580 5575 5570 5565 5560 5556 5552 5549 5545 5542 5538 5535 5532 5529 5526 5524 5522 5521 5519 5517 5517 5517 5518 5520 5523 5527 5532 5539 5545 5550 5556 5561 5569 5577 5583 5589 5597 5605 5615 5620 5625 5632 5638 5644 5650 5655 5662 5667 5673 5682 5688 5692 5697 5701 5703 5704 5708 5713 5716 5720 5725 5728 5729 5733 5736 5739 5742 5745 5748 5751 5753 5757 5760 5764 5767
5636 5632 5627 5623 5619 5615 5611 5606 5602 5597 5593 5588 5583 5578 5574 5569 5564 5559 5554 5551 5548 5544 5541 5537 5534 5530 5527 5525 5523 5520 5519 5517 5515 5515 5515 5515 5518 5521 5525 5530 5536 5541 5545 5552 5559 5567 5573 5577 5583 5593 5601 5608 5613 5620 5627 5633 5640 5644 5649 5658 5664 5669 5678 5684 5688 5693 5696 5696 5699 5706 5711 5711 5715 5720 5723 5725 5729 5732 5735 5738 5741 5744 5748 5751 5755 5758 5762 5765
5635 5631 5626 5621 5617 5613 5609 5605 5600 5596 5591 5586 5581 5577 5573 5568 5564 5559 5554 5549 5546 5543 5540 5536 5533 5529 5526 5524 5521 5519 5517 5515 5514 5513 5513 5513 5515 5519 5523 5527 5532 5536 5541 5550 5559 5563 5566 5570 5578 5590 5598 5603 5609 5616 5621 5629 5636 5639 5644 5653 5660 5665 5673 5680 5685 5689 5690 5692 5697 5703 5706 5708 5711 5717 5720 5722 5725 5728 5731 5735 5738 5741 5745 5749 5753 5756 5759 5762
5633 5629 5625 5620 5616 5611 5607 5603 5599 5594 5590 5585 5580 5576 5572 5568 5564 5559 5553 5548 5545 5542 5540 5536 5533 5529 5526 5523 5520 5518 5516 5514 5513 5512 5512 5512 5514 5517 5521 5525 5529 5533 5539 5548 5554 5556 5560 5566 5574 5585 5593 5600 5607 5612 5617 5625 5632 5634 5639 5650 5657 5662 5670 5676 5680 5684 5685 5689 5695 5699 5701 5704 5707 5713 5718 5719 5722 5726 5729 5732 5735 5738 5742 5747 5751 5754 5757 5760
5632 5628 5623 5619 5614 5610 5606 5602 5597 5593 5588 5584 5580 5576 5571 5568 5563 5558 5553 5549 5546 5543 5539 5536 5533 5530 5526 5522 5520 5517 5515 5512 5511 5511 5510 5511 5512 5515 5519 5522 5526 5531 5537 5544 5547 5549 5555 5563 5571 5581 5589 5595 5602 5607 5614 5622 5626 5628 5637 5647 5653 5659 5666 5672 5676 5679 5682 5687 5693 5694 5696 5700 5703 5709 5714 5715 5718 5723 5726 5729 5733 5736 5741 5745 5749 5752 5754 5756
5630 5626 5622 5618 5614 5610 5605 5601 5596 5592 5587 5583 5579 5575 5571 5567 5562 5557 5554 5550 5546 5542 5539 5536 5533 5530 5526 5522 5519 5517 5514 5512 5510 5509 5509 5510 5511 5514 5517 5521 5525 5530 5535 5540 5544 5548 5554 5561 5569 5579 5585 5590 5596 5602 5609 5617 5621 5625 5635 5643 5648 5655 5662 5667 5672 5675 5680 5684 5687 5689 5692 5696 5700 5704 5708 5710 5714 5719 5723 5726 5730 5734 5739 5743 5747 5749 5751 5753
5628 5625 5621 5617 5613 5609 5605 5600 5596 5591 5587 5582 5579 5575 5571 5566 5562 5558 5555 5550 5546 5542 5539 5536 5533 5530 5526 5522 5519 5517 5514 5512 5510 5508 5508 5509 5511 5513 5516 5519 5525 5531 5535 5539 5543 5548 5553 5559 5566 5574 5580 5585 5592 5599 5605 5611 5616 5622 5631 5637 5643 5650 5656 5662 5667 5671 5675 5677 5680 5684 5688 5692 5696 5699 5704 5708 5713 5717 5720 5724 5728 5732 5736 5740 5743 5745 5747 5750
5627 5624 5620 5617 5613 5609 5605 5600 5596 5591 5586 5582 5578 5575 5571 5567 5563 5560 5555 5551 5546 5542 5539 5536 5533 5530 5526 5523 5520 5518 5515 5512 5510 5509 5509 5510 5511 5514 5516 5519 5524 5530 5536 5540 5543 5546 5551 5556 5563 5571 5577 5583 5590 5597 5604 5610 5615 5620 5628 5635 5641 5647 5653 5660 5664 5667 5672 5673 5676 5682 5685 5690 5694 5696 5702 5708 5712 5715 5718 5722 5725 5728 5733 5737 5739 5742 5745 5748
5625 5622 5619 5616 5613 5609 5605 5600 5596 5591 5587 5582 5578 5574 5570 5567 5564 5560 5556 5552 5548 5543 5540 5536 5533 5530 5527 5524 5521 5519 5516 5514 5512 5511 5511 5511 5513 5515 5518 5520 5524 5528 5534 5540 5544 5547 5552 5558 5564 5571 5577 5583 5589 5596 5602 5608 5613 5619 5627 5633 5638 5646 5653 5659 5662 5665 5669 5669 5672 5680 5685 5688 5691 5692 5699 5707 5710 5712 5716 5719 5722 5726 5730 5734 5737 5741 5744 5746
5624 5621 5618 5615 5612 5608 5604 5600 5596 5591 5587 5582 5578 5574 5570 5567 5563 5559 5556 5552 5548 5545 5541 5537 5534 5531 5528 5525 5522 5520 5518 5516 5514 5513 5513 5513 5514 5517 5520 5522 5525 5529 5534 5540 5544 5548 5554 5559 5564 5570 5576 5582 5589 5595 5599 5605 5612 5617 5624 5630 5636 5644 5650 5655 5659 5663 5666 5668 5672 5680 5685 5686 5689 5692 5699 5706 5708 5710 5714 5716 5719 5724 5727 5731 5735 5738 5741 5744
5622 5620 5617 5614 5611 5607 5604 5600 5595 5591 5587 5582 5578 5574 5571 5567 5563 5560 5556 5552 5549 5546 5542 5539 5535 5533 5530 5527 5524 5522 5519 5517 5515 5515 5515 5516 5516 5518 5521 5524 5527 5530 5534 5539 5544 5549 5555 5559 5564 5571 5577 5582 5588 5593 5598 5604 5610 5615 5622 5628 5633 5638 5642 5650 5657 5660 5664 5668 5671 5678 5683 5685 5689 5691 5695 5703 5706 5708 5710 5713 5717 5721 5725 5729 5733 5736 5739 5741
5621 5619 5616 5613 5610 5607 5603 5599 5595 5591 5587 5583 5579 5575 5571 5567 5564 5560 5557 5554 5550 5546 5543 5540 5536 5533 5531 5528 5526 5523 5521 5519 5517 5517 5517 5519 5519 5520 5523 5525 5528 5531 5534 5539 5543 5549 5554 5559 5564 5571 5577 5582 5587 5590 5595 5602 5608 5614 5622 5627 5630 5634 5639 5645 5651 5655 5661 5666 5669 5676 5681 5683 5685 5687 5692 5700 5703 5704 5707 5710 5714 5719 5722 5726 5730 5733 5736 5738
5619 5617 5615 5612 5609 5606 5602 5599 5595 5591 5587 5583 5580 5576 5571 5567 5564 5561 5558 5555 5551 5548 5544 5541 5537 5535 5532 5530 5528 5525 5523 5521 5519 5519 5520 5521 5522 5523 5525 5527 5529 5533 5536 5541 5545 5549 5555 5559 5564 5570 5575 5580 5584 5588 5593 5600 5605 5612 5619 5624 5629 5634 5640 5646 5650 5654 5659 5663 5667 5673 5678 5680 5681 5684 5692 5698 5699 5701 5704 5708 5712 5716 5719 5723 5727 5730 5733 5735
5618 5616 5613 5611 5608 5605 5602 5598 5595 5591 5587 5584 5580 5576 5572 5568 5564 5561 5559 5555 5552 5549 5545 5542 5539 5537 5534 5532 5530 5527 5525 5523 5521 5521 5522 5524 5524 5526 5527 5529 5531 5535 5538 5542 5546 5551 5557 5561 5565 5569 5573 5577 5582 5588 5595 5599 5603 5608 5614 5619 5625 5631 5638 5645 5649 5654 5658 5661 5665 5669 5674 5677 5678 5684 5692 5695 5696 5699 5701 5705 5709 5712 5716 5720 5723 5726 5729 5732
5616 5614 5612 5610 5608 5605 5601 5598 5595 5591 5587 5584 5580 5576 5572 5568 5565 5561 5559 5556 5553 5550 5547 5544 5541 5539 5536 5534 5532 5529 5527 5525 5523 5524 5525 5526 5527 5529 5530 5532 5533 5537 5540 5545 5548 5553 5558 5562 5566 5569 5574 5580 5586 5591 5595 5599 5603 5609 5613 5618 5623 5629 5635 5641 5645 5650 5655 5660 5663 5668 5674 5676 5676 5684 5691 5693 5694 5697 5700 5704 5707 5710 5713 5716 5719 5723 5726 5729
5614 5613 5611 5609 5607 5604 5601 5598 5594 5591 5587 5584 5580 5576 5572 5569 5565 5562 5559 5556 5554 5551 5548 5546 5543 5541 5538 5536 5534 5531 5530 5528 5527 5527 5527 5528 5530 5531 5532 5534 5535 5538 5542 5546 5550 5554 5558 5563 5567 5572 5578 5583 5586 5588 5592 5597 5602 5608 5613 5618 5622 5627 5634 5640 5644 5648 5653 5657 5661 5667 5673 5674 5675 5683 5689 5690 5693 5695 5698 5702 5705 5708 5711 5714 5716 5719 5722 5726
5613 5612 5610 5608 5606 5604 5601 5597 5594 5591 5587 5584 5580 5577 5573 5570 5566 5563 5560 5557 5554 5552 5550 5547 5544 5542 5540 5538 5536 5534 5532 5531 5530 5529 5529 5530 5532 5533 5533 5535 5537 5540 5543 5548 5552 5555 5560 5564 5568 5573 5578 5581 5584 5586 5590 5595 5600 5606 5612 5618 5622 5626 5632 5640 5645 5648 5653 5657 5661 5667 5671 5671 5675 5682 5687 5688 5691 5693 5697 5700 5703 5707 5709 5712 5714 5717 5721 5724
5611 5610 5609 5607 5605 5603 5600 5597 5594 5591 5588 5584 5580 5577 5574 5571 5568 5564 5561 5558 5555 5553 5551 5548 5546 5544 5542 5540 5538 5536 5535 5534 5533 5532 5532 5532 5533 5534 5535 5537 5539 5542 5545 5548 5552 5556 5560 5565 5568 5571 5574 5576 5579 5583 5586 5591 5598 5606 5613 5617 5621 5625 5630 5636 5641 5646 5651 5656 5661 5668 5670 5671 5675 5681 5684 5686 5689 5692 5695 5699 5701 5704 5707 5710 5713 5716 5719 5722
5610 5608 5606 5605 5603 5601 5599 5597 5594 5591 5588 5585 5581 5578 5575 5572 5568 5565 5562 5559 5556 5554 5552 5549 5547 5546 5544 5542 5540 5538 5537 5536 5535 5535 5535 5534 5535 5536 5537 5539 5541 5543 5546 5549 5552 5556 5561 5565 5569 5571 5573 5576 5580 5584 5589 5595 5600 5606 5611 5614 5619 5624 5630 5635 5639 5643 5649 5653 5659 5667 5669 5670 5675 5679 5681 5685 5687 5690 5694 5697 5699 5702 5705 5708 5711 5713 5717 5719
5610 5607 5605 5604 5602 5600 5598 5596 5593 5590 5588 5586 5582 5579 5576 5572 5569 5566 5562 5560 5557 5555 5553 5551 5549 5547 5545 5544 5542 5540 5539 5538 5537 5537 5537 5536 5536 5538 5539 5541 5543 5545 5548 5551 5554 5558 5562 5565 5569 5574 5578 5583 5587 5590 5593 5596 5599 5603 5607 5611 5617 5623 5629 5635 5639 5644 5649 5653 5659 5665 5666 5668 5673 5677 5679 5682 5685 5688 5692 5695 5697 5700 5703 5706 5708 5711 5714 5717
5608 5607 5605 5603 5601 5599 5597 5595 5592 5590 5588 5586 5583 5579 5576 5573 5570 5567 5563 5560 5558 5556 5554 5552 5550 5548 5546 5545 5543 5542 5540 5540 5539 5539 5539 5538 5538 5539 5541 5543 5545 5547 5549 5552 5556 5560 5564 5568 5571 5575 5580 5584 5587 5590 5594 5597 5600 5603 5606 5611 5616 5622 5627 5633 5638 5643 5649 5655 5660 5663 5664 5667 5671 5674 5677 5680 5683 5687 5690 5693 5696 5698 5701 5704 5707 5710 5713 5715
5606 5604 5603 5602 5600 5598 5597 5595 5592 5590 5588 5585 5583 5580 5577 5574 5571 5568 5565 5561 5559 5557 5555 5553 5551 5549 5547 5546 5544 5543 5542 5541 5540 5540 5541 5540 5540 5541 5543 5545 5547 5549 5551 5554 5558 5561 5565 5569 5573 5576 5580 5583 5586 5590 5595 5599 5603 5606 5608 5611 5615 5620 5626 5631 5636 5641 5646 5653 5658 5661 5663 5667 5670 5672 5676 5678 5681 5685 5688 5691 5694 5697 5700 5703 5705 5708 5711 5713
5606 5603 5601 5600 5599 5598 5596 5594 5592 5590 5587 5585 5582 5580 5578 5575 5572 5568 5565 5563 5560 5558 5556 5554 5553 5551 5549 5547 5545 5544 5543 5542 5542 5542 5542 5542 5542 5542 5544 5546 5549 5551 5553 5556 5559 5562 5566 5569 5573 5577 5581 5584 5587 5590 5594 5599 5604 5608 5611 5615 5617 5621 5625 5630 5634 5639 5644 5649 5654 5658 5661 5666 5669 5671 5674 5676 5680 5684 5687 5690 5693 5695 5698 5701 5704 5707 5709 5712
5606 5603 5600 5599 5598 5597 5595 5593 5591 5590 5587 5585 5582 5580 5577 5575 5573 5569 5566 5564 5561 5559 5558 5556 5554 5552 5550 5548 5547 5545 5544 5543 5542 5542 5543 5543 5543 5544 5545 5548 5550 5553 5555 5558 5561 5564 5567 5570 5574 5577 5581 5585 5588 5591 5595 5599 5603 5607 5612 5616 5620 5623 5627 5631 5635 5640 5645 5650 5654 5657 5660 5664 5667 5670 5672 5675 5678 5682 5685 5688 5691 5694 5697 5700 5702 5705 5707 5710
5604 5602 5600 5599 5597 5595 5594 5593 5591 5589 5587 5585 5583 5580 5578 5576 5574 5571 5567 5564 5562 5561 5559 5557 5555 5554 5552 5551 5549 5547 5546 5545 5544 5544 5545 5545 5546 5547 5548 5550 5553 5555 5558 5561 5563 5566 5569 5572 5575 5579 5582 5586 5589 5592 5596 5599 5603 5607 5611 5615 5619 5623 5628 5633 5636 5640 5644 5649 5653 5656 5659 5662 5665 5668 5671 5674 5677 5680 5683 5686 5689 5692 5695 5698 5701 5703 5706 5708
5602 5600 5598 5597 5596 5594 5593 5592 5590 5588 5587 5585 5582 5580 5577 5575 5573 5570 5568 5565 5563 5562 5560 5558 5556 5555 5553 5552 5551 5549 5548 5547 5546 5546 5547 5548 5549 5550 5552 5554 5556 5559 5561 5563 5565 5568 5571 5573 5576 5580 5583 5586 5589 5593 5596 5600 5604 5607 5610 5614 5618 5623 5628 5632 5636 5640 5644 5648 5651 5654 5658 5661 5663 5666 5669 5673 5676 5679 5682 5684 5687 5690 5693 5696 5699 5701 5704 5707